Year,Month,Day,Hour,Minute,Value (Times are PST for temperature in C)
2015,02,22,00,00,6.40
2015,02,22,00,01,6.40
2015,02,22,00,02,6.40
2015,02,22,00,03,6.30
2015,02,22,00,04,6.30
2015,02,22,00,05,6.20
2015,02,22,00,06,6.20
2015,02,22,00,07,6.20
2015,02,22,00,08,6.10
2015,02,22,00,09,6.10
2015,02,22,00,10,6.00
2015,02,22,00,11,6.00
2015,02,22,00,12,5.90
2015,02,22,00,13,5.90
2015,02,22,00,14,5.80
2015,02,22,00,15,5.70
2015,02,22,00,16,5.70
2015,02,22,00,17,5.70
2015,02,22,00,18,5.70
2015,02,22,00,19,5.70
2015,02,22,00,20,5.70
2015,02,22,00,21,5.60
2015,02,22,00,22,5.60
2015,02,22,00,23,5.60
2015,02,22,00,24,5.50
2015,02,22,00,25,5.50
2015,02,22,00,26,5.50
2015,02,22,00,27,5.50
2015,02,22,00,28,5.50
2015,02,22,00,29,5.50
2015,02,22,00,30,5.40
2015,02,22,00,31,5.40
2015,02,22,00,32,5.40
2015,02,22,00,33,5.30
2015,02,22,00,34,5.30
2015,02,22,00,35,5.30
2015,02,22,00,36,5.30
2015,02,22,00,37,5.20
2015,02,22,00,38,5.10
2015,02,22,00,39,5.10
2015,02,22,00,40,5.00
2015,02,22,00,41,4.90
2015,02,22,00,42,4.90
2015,02,22,00,43,4.90
2015,02,22,00,44,4.80
2015,02,22,00,45,4.70
2015,02,22,00,46,4.70
2015,02,22,00,47,4.60
2015,02,22,00,48,4.60
2015,02,22,00,49,4.50
2015,02,22,00,50,4.50
2015,02,22,00,51,4.40
2015,02,22,00,52,4.40
2015,02,22,00,53,4.30
2015,02,22,00,54,4.20
2015,02,22,00,55,4.20
2015,02,22,00,56,4.10
2015,02,22,00,57,4.10
2015,02,22,00,58,4.00
2015,02,22,00,59,4.00
2015,02,22,01,00,3.90
2015,02,22,01,01,3.90
2015,02,22,01,02,3.80
2015,02,22,01,03,3.80
2015,02,22,01,04,3.80
2015,02,22,01,05,3.70
2015,02,22,01,06,3.60
2015,02,22,01,07,3.60
2015,02,22,01,08,3.60
2015,02,22,01,09,3.50
2015,02,22,01,10,3.50
2015,02,22,01,11,3.50
2015,02,22,01,12,3.40
2015,02,22,01,13,3.40
2015,02,22,01,14,3.40
2015,02,22,01,15,3.30
2015,02,22,01,16,3.30
2015,02,22,01,17,3.30
2015,02,22,01,18,3.20
2015,02,22,01,19,3.20
2015,02,22,01,20,3.10
2015,02,22,01,21,3.10
2015,02,22,01,22,3.10
2015,02,22,01,23,3.00
2015,02,22,01,24,2.90
2015,02,22,01,25,2.90
2015,02,22,01,26,2.90
2015,02,22,01,27,2.90
2015,02,22,01,28,2.90
2015,02,22,01,29,3.10
2015,02,22,01,30,3.20
2015,02,22,01,31,3.30
2015,02,22,01,32,3.40
2015,02,22,01,33,3.60
2015,02,22,01,34,3.70
2015,02,22,01,35,3.90
2015,02,22,01,36,4.00
2015,02,22,01,37,4.20
2015,02,22,01,38,4.30
2015,02,22,01,39,4.50
2015,02,22,01,40,4.60
2015,02,22,01,41,4.70
2015,02,22,01,42,4.70
2015,02,22,01,43,4.80
2015,02,22,01,44,4.90
2015,02,22,01,45,4.90
2015,02,22,01,46,5.00
2015,02,22,01,47,5.10
2015,02,22,01,48,5.10
2015,02,22,01,49,5.20
2015,02,22,01,50,5.20
2015,02,22,01,51,5.30
2015,02,22,01,52,5.30
2015,02,22,01,53,5.40
2015,02,22,01,54,5.50
2015,02,22,01,55,5.50
2015,02,22,01,56,5.60
2015,02,22,01,57,5.60
2015,02,22,01,58,5.60
2015,02,22,01,59,5.60
2015,02,22,02,00,5.70
2015,02,22,02,01,5.70
2015,02,22,02,02,5.70
2015,02,22,02,03,5.70
2015,02,22,02,04,5.70
2015,02,22,02,05,5.70
2015,02,22,02,06,5.60
2015,02,22,02,07,5.60
2015,02,22,02,08,5.50
2015,02,22,02,09,5.50
2015,02,22,02,10,5.40
2015,02,22,02,11,5.40
2015,02,22,02,12,5.30
2015,02,22,02,13,5.30
2015,02,22,02,14,5.30
2015,02,22,02,15,5.30
2015,02,22,02,16,5.30
2015,02,22,02,17,5.40
2015,02,22,02,18,5.50
2015,02,22,02,19,5.50
2015,02,22,02,20,5.60
2015,02,22,02,21,5.70
2015,02,22,02,22,5.70
2015,02,22,02,23,5.80
2015,02,22,02,24,5.90
2015,02,22,02,25,5.90
2015,02,22,02,26,6.00
2015,02,22,02,27,6.10
2015,02,22,02,28,6.20
2015,02,22,02,29,6.20
2015,02,22,02,30,6.30
2015,02,22,02,31,6.30
2015,02,22,02,32,6.40
2015,02,22,02,33,6.40
2015,02,22,02,34,6.40
2015,02,22,02,35,6.40
2015,02,22,02,36,6.40
2015,02,22,02,37,6.40
2015,02,22,02,38,6.40
2015,02,22,02,39,6.40
2015,02,22,02,40,6.40
2015,02,22,02,41,6.40
2015,02,22,02,42,6.40
2015,02,22,02,43,6.40
2015,02,22,02,44,6.40
2015,02,22,02,45,6.40
2015,02,22,02,46,6.40
2015,02,22,02,47,6.40
2015,02,22,02,48,6.40
2015,02,22,02,49,6.40
2015,02,22,02,50,6.50
2015,02,22,02,51,6.50
2015,02,22,02,52,6.50
2015,02,22,02,53,6.50
2015,02,22,02,54,6.40
2015,02,22,02,55,6.40
2015,02,22,02,56,6.40
2015,02,22,02,57,6.40
2015,02,22,02,58,6.40
2015,02,22,02,59,6.40
2015,02,22,03,00,6.30
2015,02,22,03,01,6.30
2015,02,22,03,02,6.30
2015,02,22,03,03,6.30
2015,02,22,03,04,6.30
2015,02,22,03,05,6.30
2015,02,22,03,06,6.40
2015,02,22,03,07,6.40
2015,02,22,03,08,6.40
2015,02,22,03,09,6.40
2015,02,22,03,10,6.40
2015,02,22,03,11,6.40
2015,02,22,03,12,6.40
2015,02,22,03,13,6.50
2015,02,22,03,14,6.60
2015,02,22,03,15,6.60
2015,02,22,03,16,6.70
2015,02,22,03,17,6.80
2015,02,22,03,18,6.80
2015,02,22,03,19,6.80
2015,02,22,03,20,6.80
2015,02,22,03,21,6.80
2015,02,22,03,22,6.80
2015,02,22,03,23,6.80
2015,02,22,03,24,6.80
2015,02,22,03,25,6.80
2015,02,22,03,26,6.70
2015,02,22,03,27,6.70
2015,02,22,03,28,6.70
2015,02,22,03,29,6.80
2015,02,22,03,30,6.80
2015,02,22,03,31,6.80
2015,02,22,03,32,6.80
2015,02,22,03,33,6.80
2015,02,22,03,34,6.80
2015,02,22,03,35,6.80
2015,02,22,03,36,6.80
2015,02,22,03,37,6.80
2015,02,22,03,38,6.80
2015,02,22,03,39,6.80
2015,02,22,03,40,6.80
2015,02,22,03,41,6.80
2015,02,22,03,42,6.80
2015,02,22,03,43,6.80
2015,02,22,03,44,6.80
2015,02,22,03,45,6.80
2015,02,22,03,46,6.90
2015,02,22,03,47,6.90
2015,02,22,03,48,6.90
2015,02,22,03,49,6.90
2015,02,22,03,50,6.90
2015,02,22,03,51,6.90
2015,02,22,03,52,6.90
2015,02,22,03,53,6.90
2015,02,22,03,54,6.90
2015,02,22,03,55,6.90
2015,02,22,03,56,6.90
2015,02,22,03,57,6.90
2015,02,22,03,58,6.90
2015,02,22,03,59,6.90
2015,02,22,04,00,6.80
2015,02,22,04,01,6.80
2015,02,22,04,02,6.70
2015,02,22,04,03,6.70
2015,02,22,04,04,6.70
2015,02,22,04,05,6.60
2015,02,22,04,06,6.60
2015,02,22,04,07,6.50
2015,02,22,04,08,6.40
2015,02,22,04,09,6.40
2015,02,22,04,10,6.30
2015,02,22,04,11,6.30
2015,02,22,04,12,6.20
2015,02,22,04,13,6.10
2015,02,22,04,14,5.90
2015,02,22,04,15,5.70
2015,02,22,04,16,5.60
2015,02,22,04,17,5.50
2015,02,22,04,18,5.30
2015,02,22,04,19,5.20
2015,02,22,04,20,5.10
2015,02,22,04,21,5.10
2015,02,22,04,22,5.00
2015,02,22,04,23,4.90
2015,02,22,04,24,4.80
2015,02,22,04,25,4.80
2015,02,22,04,26,4.70
2015,02,22,04,27,4.60
2015,02,22,04,28,4.60
2015,02,22,04,29,4.60
2015,02,22,04,30,4.50
2015,02,22,04,31,4.50
2015,02,22,04,32,4.40
2015,02,22,04,33,4.40
2015,02,22,04,34,4.40
2015,02,22,04,35,4.30
2015,02,22,04,36,4.30
2015,02,22,04,37,4.20
2015,02,22,04,38,4.20
2015,02,22,04,39,4.20
2015,02,22,04,40,4.20
2015,02,22,04,41,4.20
2015,02,22,04,42,4.10
2015,02,22,04,43,4.00
2015,02,22,04,44,4.00
2015,02,22,04,45,4.00
2015,02,22,04,46,3.90
2015,02,22,04,47,3.80
2015,02,22,04,48,3.80
2015,02,22,04,49,3.80
2015,02,22,04,50,3.80
2015,02,22,04,51,3.80
2015,02,22,04,52,3.80
2015,02,22,04,53,3.80
2015,02,22,04,54,3.80
2015,02,22,04,55,3.90
2015,02,22,04,56,3.90
2015,02,22,04,57,3.90
2015,02,22,04,58,3.90
2015,02,22,04,59,3.90
2015,02,22,05,00,3.90
2015,02,22,05,01,3.90
2015,02,22,05,02,3.90
2015,02,22,05,03,3.90
2015,02,22,05,04,3.90
2015,02,22,05,05,4.00
2015,02,22,05,06,4.00
2015,02,22,05,07,4.00
2015,02,22,05,08,4.00
2015,02,22,05,09,4.00
2015,02,22,05,10,4.00
2015,02,22,05,11,4.00
2015,02,22,05,12,4.10
2015,02,22,05,13,4.10
2015,02,22,05,14,4.10
2015,02,22,05,15,4.10
2015,02,22,05,16,4.10
2015,02,22,05,17,4.10
2015,02,22,05,18,4.20
2015,02,22,05,19,4.20
2015,02,22,05,20,4.20
2015,02,22,05,21,4.20
2015,02,22,05,22,4.20
2015,02,22,05,23,4.20
2015,02,22,05,24,4.20
2015,02,22,05,25,4.20
2015,02,22,05,26,4.20
2015,02,22,05,27,4.10
2015,02,22,05,28,4.10
2015,02,22,05,29,4.10
2015,02,22,05,30,4.10
2015,02,22,05,31,4.10
2015,02,22,05,32,4.10
2015,02,22,05,33,4.10
2015,02,22,05,34,4.10
2015,02,22,05,35,4.10
2015,02,22,05,36,4.10
2015,02,22,05,37,4.10
2015,02,22,05,38,4.10
2015,02,22,05,39,4.10
2015,02,22,05,40,4.10
2015,02,22,05,41,4.10
2015,02,22,05,42,4.10
2015,02,22,05,43,4.10
2015,02,22,05,44,4.10
2015,02,22,05,45,4.00
2015,02,22,05,46,4.00
2015,02,22,05,47,4.00
2015,02,22,05,48,4.00
2015,02,22,05,49,4.00
2015,02,22,05,50,4.00
2015,02,22,05,51,3.90
2015,02,22,05,52,3.90
2015,02,22,05,53,3.90
2015,02,22,05,54,3.90
2015,02,22,05,55,3.80
2015,02,22,05,56,3.80
2015,02,22,05,57,3.80
2015,02,22,05,58,3.80
2015,02,22,05,59,3.80
2015,02,22,06,00,3.80
2015,02,22,06,01,3.80
2015,02,22,06,02,3.80
2015,02,22,06,03,3.80
2015,02,22,06,04,3.80
2015,02,22,06,05,3.80
2015,02,22,06,06,3.80
2015,02,22,06,07,3.80
2015,02,22,06,08,3.80
2015,02,22,06,09,3.80
2015,02,22,06,10,3.80
2015,02,22,06,11,3.80
2015,02,22,06,12,3.80
2015,02,22,06,13,3.80
2015,02,22,06,14,3.80
2015,02,22,06,15,3.80
2015,02,22,06,16,3.80
2015,02,22,06,17,3.80
2015,02,22,06,18,3.80
2015,02,22,06,19,3.80
2015,02,22,06,20,3.80
2015,02,22,06,21,3.80
2015,02,22,06,22,3.80
2015,02,22,06,23,3.80
2015,02,22,06,24,3.70
2015,02,22,06,25,3.70
2015,02,22,06,26,3.70
2015,02,22,06,27,3.70
2015,02,22,06,28,3.60
2015,02,22,06,29,3.60
2015,02,22,06,30,3.60
2015,02,22,06,31,3.60
2015,02,22,06,32,3.60
2015,02,22,06,33,3.60
2015,02,22,06,34,3.60
2015,02,22,06,35,3.50
2015,02,22,06,36,3.50
2015,02,22,06,37,3.50
2015,02,22,06,38,3.50
2015,02,22,06,39,3.50
2015,02,22,06,40,3.40
2015,02,22,06,41,3.40
2015,02,22,06,42,3.40
2015,02,22,06,43,3.40
2015,02,22,06,44,3.30
2015,02,22,06,45,3.30
2015,02,22,06,46,3.30
2015,02,22,06,47,3.30
2015,02,22,06,48,3.30
2015,02,22,06,49,3.20
2015,02,22,06,50,3.20
2015,02,22,06,51,3.20
2015,02,22,06,52,3.20
2015,02,22,06,53,3.20
2015,02,22,06,54,3.20
2015,02,22,06,55,3.20
2015,02,22,06,56,3.10
2015,02,22,06,57,3.10
2015,02,22,06,58,3.10
2015,02,22,06,59,3.10
2015,02,22,07,00,3.10
2015,02,22,07,01,3.10
2015,02,22,07,02,3.10
2015,02,22,07,03,3.10
2015,02,22,07,04,3.00
2015,02,22,07,05,2.90
2015,02,22,07,06,2.90
2015,02,22,07,07,2.90
2015,02,22,07,08,2.90
2015,02,22,07,09,2.80
2015,02,22,07,10,2.80
2015,02,22,07,11,2.80
2015,02,22,07,12,2.70
2015,02,22,07,13,2.70
2015,02,22,07,14,2.70
2015,02,22,07,15,2.70
2015,02,22,07,16,2.60
2015,02,22,07,17,2.60
2015,02,22,07,18,2.50
2015,02,22,07,19,2.50
2015,02,22,07,20,2.50
2015,02,22,07,21,2.50
2015,02,22,07,22,2.50
2015,02,22,07,23,2.50
2015,02,22,07,24,2.50
2015,02,22,07,25,2.50
2015,02,22,07,26,2.60
2015,02,22,07,27,2.60
2015,02,22,07,28,2.70
2015,02,22,07,29,2.70
2015,02,22,07,30,2.70
2015,02,22,07,31,2.70
2015,02,22,07,32,2.70
2015,02,22,07,33,2.80
2015,02,22,07,34,2.80
2015,02,22,07,35,2.90
2015,02,22,07,36,2.90
2015,02,22,07,37,2.90
2015,02,22,07,38,2.90
2015,02,22,07,39,2.90
2015,02,22,07,40,2.90
2015,02,22,07,41,3.10
2015,02,22,07,42,3.10
2015,02,22,07,43,3.10
2015,02,22,07,44,3.10
2015,02,22,07,45,3.10
2015,02,22,07,46,3.10
2015,02,22,07,47,3.10
2015,02,22,07,48,3.10
2015,02,22,07,49,3.10
2015,02,22,07,50,3.10
2015,02,22,07,51,3.10
2015,02,22,07,52,3.10
2015,02,22,07,53,3.10
2015,02,22,07,54,3.10
2015,02,22,07,55,3.20
2015,02,22,07,56,3.20
2015,02,22,07,57,3.20
2015,02,22,07,58,3.20
2015,02,22,07,59,3.20
2015,02,22,08,00,3.20
2015,02,22,08,01,3.30
2015,02,22,08,02,3.30
2015,02,22,08,03,3.30
2015,02,22,08,04,3.30
2015,02,22,08,05,3.30
2015,02,22,08,06,3.30
2015,02,22,08,07,3.40
2015,02,22,08,08,3.40
2015,02,22,08,09,3.40
2015,02,22,08,10,3.50
2015,02,22,08,11,3.50
2015,02,22,08,12,3.50
2015,02,22,08,13,3.60
2015,02,22,08,14,3.60
2015,02,22,08,15,3.60
2015,02,22,08,16,3.60
2015,02,22,08,17,3.70
2015,02,22,08,18,3.80
2015,02,22,08,19,3.80
2015,02,22,08,20,3.80
2015,02,22,08,21,3.80
2015,02,22,08,22,3.90
2015,02,22,08,23,3.90
2015,02,22,08,24,4.00
2015,02,22,08,25,4.00
2015,02,22,08,26,4.00
2015,02,22,08,27,4.10
2015,02,22,08,28,4.10
2015,02,22,08,29,4.10
2015,02,22,08,30,4.20
2015,02,22,08,31,4.20
2015,02,22,08,32,4.20
2015,02,22,08,33,4.20
2015,02,22,08,34,4.30
2015,02,22,08,35,4.40
2015,02,22,08,36,4.40
2015,02,22,08,37,4.50
2015,02,22,08,38,4.50
2015,02,22,08,39,4.50
2015,02,22,08,40,4.60
2015,02,22,08,41,4.60
2015,02,22,08,42,4.60
2015,02,22,08,43,4.60
2015,02,22,08,44,4.70
2015,02,22,08,45,4.70
2015,02,22,08,46,4.80
2015,02,22,08,47,4.80
2015,02,22,08,48,4.80
2015,02,22,08,49,4.90
2015,02,22,08,50,4.90
2015,02,22,08,51,4.90
2015,02,22,08,52,5.10
2015,02,22,08,53,5.10
2015,02,22,08,54,5.10
2015,02,22,08,55,5.10
2015,02,22,08,56,5.20
2015,02,22,08,57,5.30
2015,02,22,08,58,5.30
2015,02,22,08,59,5.30
2015,02,22,09,00,5.30
2015,02,22,09,01,5.40
2015,02,22,09,02,5.50
2015,02,22,09,03,5.50
2015,02,22,09,04,5.60
2015,02,22,09,05,5.60
2015,02,22,09,06,5.70
2015,02,22,09,07,5.70
2015,02,22,09,08,5.70
2015,02,22,09,09,5.80
2015,02,22,09,10,5.80
2015,02,22,09,11,5.90
2015,02,22,09,12,5.90
2015,02,22,09,13,5.90
2015,02,22,09,14,5.90
2015,02,22,09,15,5.90
2015,02,22,09,16,5.90
2015,02,22,09,17,5.90
2015,02,22,09,18,5.90
2015,02,22,09,19,5.80
2015,02,22,09,20,5.80
2015,02,22,09,21,5.80
2015,02,22,09,22,5.80
2015,02,22,09,23,5.80
2015,02,22,09,24,5.80
2015,02,22,09,25,5.80
2015,02,22,09,26,5.80
2015,02,22,09,27,5.80
2015,02,22,09,28,5.80
2015,02,22,09,29,5.90
2015,02,22,09,30,5.90
2015,02,22,09,31,5.90
2015,02,22,09,32,5.90
2015,02,22,09,33,5.90
2015,02,22,09,34,5.90
2015,02,22,09,35,5.90
2015,02,22,09,36,5.90
2015,02,22,09,37,5.90
2015,02,22,09,38,5.90
2015,02,22,09,39,6.00
2015,02,22,09,40,6.00
2015,02,22,09,41,6.00
2015,02,22,09,42,6.00
2015,02,22,09,43,5.90
2015,02,22,09,44,5.90
2015,02,22,09,45,5.90
2015,02,22,09,46,5.90
2015,02,22,09,47,5.90
2015,02,22,09,48,5.90
2015,02,22,09,49,5.90
2015,02,22,09,50,5.90
2015,02,22,09,51,5.90
2015,02,22,09,52,5.90
2015,02,22,09,53,5.90
2015,02,22,09,54,5.90
2015,02,22,09,55,5.90
2015,02,22,09,56,5.90
2015,02,22,09,57,5.90
2015,02,22,09,58,5.90
2015,02,22,09,59,5.90
2015,02,22,10,00,6.00
2015,02,22,10,01,6.00
2015,02,22,10,02,6.00
2015,02,22,10,03,6.00
2015,02,22,10,04,6.00
2015,02,22,10,05,6.00
2015,02,22,10,06,6.10
2015,02,22,10,07,6.10
2015,02,22,10,08,6.10
2015,02,22,10,09,6.10
2015,02,22,10,10,6.10
2015,02,22,10,11,6.10
2015,02,22,10,12,6.10
2015,02,22,10,13,6.10
2015,02,22,10,14,6.10
2015,02,22,10,15,6.20
2015,02,22,10,16,6.20
2015,02,22,10,17,6.20
2015,02,22,10,18,6.20
2015,02,22,10,19,6.20
2015,02,22,10,20,6.20
2015,02,22,10,21,6.20
2015,02,22,10,22,6.20
2015,02,22,10,23,6.20
2015,02,22,10,24,6.30
2015,02,22,10,25,6.30
2015,02,22,10,26,6.40
2015,02,22,10,27,6.40
2015,02,22,10,28,6.40
2015,02,22,10,29,6.40
2015,02,22,10,30,6.50
2015,02,22,10,31,6.60
2015,02,22,10,32,6.60
2015,02,22,10,33,6.60
2015,02,22,10,34,6.60
2015,02,22,10,35,6.70
2015,02,22,10,36,6.70
2015,02,22,10,37,6.80
2015,02,22,10,38,6.80
2015,02,22,10,39,6.80
2015,02,22,10,40,6.90
2015,02,22,10,41,7.00
2015,02,22,10,42,7.00
2015,02,22,10,43,7.10
2015,02,22,10,44,7.10
2015,02,22,10,45,7.20
2015,02,22,10,46,7.30
2015,02,22,10,47,7.30
2015,02,22,10,48,7.40
2015,02,22,10,49,7.40
2015,02,22,10,50,7.50
2015,02,22,10,51,7.60
2015,02,22,10,52,7.60
2015,02,22,10,53,7.70
2015,02,22,10,54,7.70
2015,02,22,10,55,7.70
2015,02,22,10,56,7.80
2015,02,22,10,57,7.80
2015,02,22,10,58,7.80
2015,02,22,10,59,7.80
2015,02,22,11,00,7.80
2015,02,22,11,01,7.80
2015,02,22,11,02,7.80
2015,02,22,11,03,7.80
2015,02,22,11,04,7.80
2015,02,22,11,05,7.90
2015,02,22,11,06,7.90
2015,02,22,11,07,8.00
2015,02,22,11,08,8.10
2015,02,22,11,09,8.10
2015,02,22,11,10,8.10
2015,02,22,11,11,8.10
2015,02,22,11,12,8.10
2015,02,22,11,13,8.20
2015,02,22,11,14,8.20
2015,02,22,11,15,8.20
2015,02,22,11,16,8.20
2015,02,22,11,17,8.20
2015,02,22,11,18,8.20
2015,02,22,11,19,8.30
2015,02,22,11,20,8.30
2015,02,22,11,21,8.40
2015,02,22,11,22,8.40
2015,02,22,11,23,8.40
2015,02,22,11,24,8.40
2015,02,22,11,25,8.50
2015,02,22,11,26,8.50
2015,02,22,11,27,8.50
2015,02,22,11,28,8.50
2015,02,22,11,29,8.60
2015,02,22,11,30,8.60
2015,02,22,11,31,8.70
2015,02,22,11,32,8.70
2015,02,22,11,33,8.70
2015,02,22,11,34,8.60
2015,02,22,11,35,8.60
2015,02,22,11,36,8.50
2015,02,22,11,37,8.50
2015,02,22,11,38,8.50
2015,02,22,11,39,8.50
2015,02,22,11,40,8.40
2015,02,22,11,41,8.40
2015,02,22,11,42,8.30
2015,02,22,11,43,8.30
2015,02,22,11,44,8.30
2015,02,22,11,45,8.30
2015,02,22,11,46,8.30
2015,02,22,11,47,8.20
2015,02,22,11,48,8.20
2015,02,22,11,49,8.20
2015,02,22,11,50,8.20
2015,02,22,11,51,8.20
2015,02,22,11,52,8.30
2015,02,22,11,53,8.40
2015,02,22,11,54,8.50
2015,02,22,11,55,8.50
2015,02,22,11,56,8.60
2015,02,22,11,57,8.60
2015,02,22,11,58,8.60
2015,02,22,11,59,8.60
2015,02,22,12,00,8.60
2015,02,22,12,01,8.60
2015,02,22,12,02,8.60
2015,02,22,12,03,8.60
2015,02,22,12,04,8.70
2015,02,22,12,05,8.70
2015,02,22,12,06,8.70
2015,02,22,12,07,8.70
2015,02,22,12,08,8.70
2015,02,22,12,09,8.80
2015,02,22,12,10,8.80
2015,02,22,12,11,8.90
2015,02,22,12,12,8.90
2015,02,22,12,13,9.00
2015,02,22,12,14,9.10
2015,02,22,12,15,9.10
2015,02,22,12,16,9.10
2015,02,22,12,17,9.10
2015,02,22,12,18,9.20
2015,02,22,12,19,9.20
2015,02,22,12,20,9.10
2015,02,22,12,21,9.00
2015,02,22,12,22,9.00
2015,02,22,12,23,8.90
2015,02,22,12,24,8.90
2015,02,22,12,25,8.90
2015,02,22,12,26,8.90
2015,02,22,12,27,8.90
2015,02,22,12,28,8.90
2015,02,22,12,29,9.00
2015,02,22,12,30,8.90
2015,02,22,12,31,8.90
2015,02,22,12,32,8.90
2015,02,22,12,33,9.00
2015,02,22,12,34,9.00
2015,02,22,12,35,9.00
2015,02,22,12,36,9.10
2015,02,22,12,37,9.10
2015,02,22,12,38,9.20
2015,02,22,12,39,9.20
2015,02,22,12,40,9.30
2015,02,22,12,41,9.40
2015,02,22,12,42,9.50
2015,02,22,12,43,9.50
2015,02,22,12,44,9.60
2015,02,22,12,45,9.60
2015,02,22,12,46,9.70
2015,02,22,12,47,9.70
2015,02,22,12,48,9.60
2015,02,22,12,49,9.60
2015,02,22,12,50,9.50
2015,02,22,12,51,9.50
2015,02,22,12,52,9.40
2015,02,22,12,53,9.30
2015,02,22,12,54,9.30
2015,02,22,12,55,9.30
2015,02,22,12,56,9.20
2015,02,22,12,57,9.20
2015,02,22,12,58,9.20
2015,02,22,12,59,9.20
2015,02,22,13,00,9.20
2015,02,22,13,01,9.20
2015,02,22,13,02,9.20
2015,02,22,13,03,9.20
2015,02,22,13,04,9.20
2015,02,22,13,05,9.20
2015,02,22,13,06,9.20
2015,02,22,13,07,9.20
2015,02,22,13,08,9.20
2015,02,22,13,09,9.10
2015,02,22,13,10,9.10
2015,02,22,13,11,9.10
2015,02,22,13,12,9.10
2015,02,22,13,13,9.00
2015,02,22,13,14,9.00
2015,02,22,13,15,8.90
2015,02,22,13,16,8.90
2015,02,22,13,17,8.90
2015,02,22,13,18,8.90
2015,02,22,13,19,8.90
2015,02,22,13,20,8.90
2015,02,22,13,21,8.90
2015,02,22,13,22,8.90
2015,02,22,13,23,8.90
2015,02,22,13,24,9.00
2015,02,22,13,25,9.00
2015,02,22,13,26,9.10
2015,02,22,13,27,9.20
2015,02,22,13,28,9.20
2015,02,22,13,29,9.40
2015,02,22,13,30,9.40
2015,02,22,13,31,9.40
2015,02,22,13,32,9.50
2015,02,22,13,33,9.60
2015,02,22,13,34,9.60
2015,02,22,13,35,9.70
2015,02,22,13,36,9.80
2015,02,22,13,37,9.80
2015,02,22,13,38,9.90
2015,02,22,13,39,9.90
2015,02,22,13,40,9.90
2015,02,22,13,41,9.90
2015,02,22,13,42,9.90
2015,02,22,13,43,10.00
2015,02,22,13,44,9.90
2015,02,22,13,45,9.90
2015,02,22,13,46,9.90
2015,02,22,13,47,9.90
2015,02,22,13,48,9.90
2015,02,22,13,49,10.00
2015,02,22,13,50,10.10
2015,02,22,13,51,10.10
2015,02,22,13,52,10.10
2015,02,22,13,53,10.10
2015,02,22,13,54,10.10
2015,02,22,13,55,10.10
2015,02,22,13,56,10.10
2015,02,22,13,57,10.00
2015,02,22,13,58,9.90
2015,02,22,13,59,9.90
2015,02,22,14,00,9.80
2015,02,22,14,01,9.70
2015,02,22,14,02,9.60
2015,02,22,14,03,9.50
2015,02,22,14,04,9.50
2015,02,22,14,05,9.40
2015,02,22,14,06,9.30
2015,02,22,14,07,9.30
2015,02,22,14,08,9.20
2015,02,22,14,09,9.20
2015,02,22,14,10,9.20
2015,02,22,14,11,9.20
2015,02,22,14,12,9.20
2015,02,22,14,13,9.20
2015,02,22,14,14,9.20
2015,02,22,14,15,9.20
2015,02,22,14,16,9.20
2015,02,22,14,17,9.20
2015,02,22,14,18,9.20
2015,02,22,14,19,9.20
2015,02,22,14,20,9.20
2015,02,22,14,21,9.10
2015,02,22,14,22,9.10
2015,02,22,14,23,9.10
2015,02,22,14,24,9.10
2015,02,22,14,25,9.00
2015,02,22,14,26,9.00
2015,02,22,14,27,8.90
2015,02,22,14,28,8.90
2015,02,22,14,29,8.80
2015,02,22,14,30,8.70
2015,02,22,14,31,8.70
2015,02,22,14,32,8.70
2015,02,22,14,33,8.70
2015,02,22,14,34,8.70
2015,02,22,14,35,8.70
2015,02,22,14,36,8.60
2015,02,22,14,37,8.60
2015,02,22,14,38,8.60
2015,02,22,14,39,8.50
2015,02,22,14,40,8.50
2015,02,22,14,41,8.50
2015,02,22,14,42,8.50
2015,02,22,14,43,8.50
2015,02,22,14,44,8.50
2015,02,22,14,45,8.50
2015,02,22,14,46,8.50
2015,02,22,14,47,8.50
2015,02,22,14,48,8.50
2015,02,22,14,49,8.50
2015,02,22,14,50,8.50
2015,02,22,14,51,8.50
2015,02,22,14,52,8.50
2015,02,22,14,53,8.50
2015,02,22,14,54,8.50
2015,02,22,14,55,8.50
2015,02,22,14,56,8.50
2015,02,22,14,57,8.50
2015,02,22,14,58,8.60
2015,02,22,14,59,8.50
2015,02,22,15,00,8.50
2015,02,22,15,01,8.50
2015,02,22,15,02,8.50
2015,02,22,15,03,8.50
2015,02,22,15,04,8.50
2015,02,22,15,05,8.50
2015,02,22,15,06,8.50
2015,02,22,15,07,8.50
2015,02,22,15,08,8.60
2015,02,22,15,09,8.60
2015,02,22,15,10,8.60
2015,02,22,15,11,8.70
2015,02,22,15,12,8.70
2015,02,22,15,13,8.70
2015,02,22,15,14,8.70
2015,02,22,15,15,8.70
2015,02,22,15,16,8.70
2015,02,22,15,17,8.70
2015,02,22,15,18,8.70
2015,02,22,15,19,8.70
2015,02,22,15,20,8.70
2015,02,22,15,21,8.80
2015,02,22,15,22,8.80
2015,02,22,15,23,8.80
2015,02,22,15,24,8.80
2015,02,22,15,25,8.80
2015,02,22,15,26,8.80
2015,02,22,15,27,8.80
2015,02,22,15,28,8.80
2015,02,22,15,29,8.90
2015,02,22,15,30,8.90
2015,02,22,15,31,8.90
2015,02,22,15,32,9.00
2015,02,22,15,33,9.00
2015,02,22,15,34,9.10
2015,02,22,15,35,9.10
2015,02,22,15,36,9.20
2015,02,22,15,37,9.20
2015,02,22,15,38,9.30
2015,02,22,15,39,9.40
2015,02,22,15,40,9.50
2015,02,22,15,41,9.50
2015,02,22,15,42,9.60
2015,02,22,15,43,9.70
2015,02,22,15,44,9.70
2015,02,22,15,45,9.80
2015,02,22,15,46,9.90
2015,02,22,15,47,9.90
2015,02,22,15,48,9.90
2015,02,22,15,49,10.00
2015,02,22,15,50,10.10
2015,02,22,15,51,10.10
2015,02,22,15,52,10.10
2015,02,22,15,53,10.10
2015,02,22,15,54,10.10
2015,02,22,15,55,10.20
2015,02,22,15,56,10.20
2015,02,22,15,57,10.30
2015,02,22,15,58,10.40
2015,02,22,15,59,10.40
2015,02,22,16,00,10.50
2015,02,22,16,01,10.60
2015,02,22,16,02,10.60
2015,02,22,16,03,10.60
2015,02,22,16,04,10.60
2015,02,22,16,05,10.60
2015,02,22,16,06,10.60
2015,02,22,16,07,10.60
2015,02,22,16,08,10.60
2015,02,22,16,09,10.60
2015,02,22,16,10,10.60
2015,02,22,16,11,10.60
2015,02,22,16,12,10.60
2015,02,22,16,13,10.60
2015,02,22,16,14,10.60
2015,02,22,16,15,10.60
2015,02,22,16,16,10.60
2015,02,22,16,17,10.60
2015,02,22,16,18,10.60
2015,02,22,16,19,10.50
2015,02,22,16,20,10.40
2015,02,22,16,21,10.40
2015,02,22,16,22,10.40
2015,02,22,16,23,10.40
2015,02,22,16,24,10.30
2015,02,22,16,25,10.30
2015,02,22,16,26,10.20
2015,02,22,16,27,10.20
2015,02,22,16,28,10.20
2015,02,22,16,29,10.30
2015,02,22,16,30,10.30
2015,02,22,16,31,10.30
2015,02,22,16,32,10.30
2015,02,22,16,33,10.30
2015,02,22,16,34,10.30
2015,02,22,16,35,10.20
2015,02,22,16,36,10.20
2015,02,22,16,37,10.20
2015,02,22,16,38,10.20
2015,02,22,16,39,10.20
2015,02,22,16,40,10.20
2015,02,22,16,41,10.20
2015,02,22,16,42,10.20
2015,02,22,16,43,10.20
2015,02,22,16,44,10.20
2015,02,22,16,45,10.20
2015,02,22,16,46,10.20
2015,02,22,16,47,10.20
2015,02,22,16,48,10.20
2015,02,22,16,49,10.20
2015,02,22,16,50,10.20
2015,02,22,16,51,10.20
2015,02,22,16,52,10.20
2015,02,22,16,53,10.20
2015,02,22,16,54,10.20
2015,02,22,16,55,10.30
2015,02,22,16,56,10.30
2015,02,22,16,57,10.30
2015,02,22,16,58,10.30
2015,02,22,16,59,10.20
2015,02,22,17,00,10.20
2015,02,22,17,01,10.20
2015,02,22,17,02,10.10
2015,02,22,17,03,10.10
2015,02,22,17,04,10.00
2015,02,22,17,05,9.90
2015,02,22,17,06,9.90
2015,02,22,17,07,9.80
2015,02,22,17,08,9.70
2015,02,22,17,09,9.70
2015,02,22,17,10,9.70
2015,02,22,17,11,9.60
2015,02,22,17,12,9.50
2015,02,22,17,13,9.40
2015,02,22,17,14,9.30
2015,02,22,17,15,9.30
2015,02,22,17,16,9.20
2015,02,22,17,17,9.20
2015,02,22,17,18,9.20
2015,02,22,17,19,9.10
2015,02,22,17,20,9.00
2015,02,22,17,21,9.00
2015,02,22,17,22,8.90
2015,02,22,17,23,8.90
2015,02,22,17,24,8.90
2015,02,22,17,25,8.80
2015,02,22,17,26,8.80
2015,02,22,17,27,8.70
2015,02,22,17,28,8.70
2015,02,22,17,29,8.60
2015,02,22,17,30,8.60
2015,02,22,17,31,8.50
2015,02,22,17,32,8.50
2015,02,22,17,33,8.40
2015,02,22,17,34,8.40
2015,02,22,17,35,8.40
2015,02,22,17,36,8.30
2015,02,22,17,37,8.30
2015,02,22,17,38,8.20
2015,02,22,17,39,8.20
2015,02,22,17,40,8.20
2015,02,22,17,41,8.10
2015,02,22,17,42,8.10
2015,02,22,17,43,8.00
2015,02,22,17,44,8.00
2015,02,22,17,45,8.00
2015,02,22,17,46,7.90
2015,02,22,17,47,7.90
2015,02,22,17,48,7.80
2015,02,22,17,49,7.80
2015,02,22,17,50,7.80
2015,02,22,17,51,7.70
2015,02,22,17,52,7.70
2015,02,22,17,53,7.60
2015,02,22,17,54,7.60
2015,02,22,17,55,7.50
2015,02,22,17,56,7.50
2015,02,22,17,57,7.40
2015,02,22,17,58,7.30
2015,02,22,17,59,7.30
2015,02,22,18,00,7.30
2015,02,22,18,01,7.30
2015,02,22,18,02,7.20